Regional Weather Roundup
Issued by NWS

Home | Current Version | Previous Version | Graphics & Text | Print | Product List | Glossary On
Versions: 1 2 3 4 5 6 7 8 9 10 11 12 13 14 15 16 17 18 19 20 21 22 23 24 25 26 27 28 29 30 31 32 33 34 35 36 37 38 39 40 41 42 43 44 45 46 47 48 49 50
000
ASUS45 KSLC 032310
RWRUT

UTAH REGIONAL WEATHER ROUNDUP
NATIONAL WEATHER SERVICE SALT LAKE CITY UT
500 PM MDT THU SEP 03 2015

UTZ001>011-023>025-040000-

NORTHERN UTAH

CITY           SKY/WX    TMP DP  RH WIND       PRES   REMARKS
BRIGHAM CITY   MOSUNNY   87  29  12 SW12G20   29.79F
HILL AFB       MOSUNNY   86  36  16 S22G31    29.82F
LOGAN          SUNNY     86  36  16 S15G24    29.80F
OGDEN          SUNNY     87  34  15 S20G28    29.79F
PROVO AIRPORT  MOSUNNY   84  37  18 SW9       29.84F
SALT LAKE CITY MOSUNNY   89  32  13 S22G29    29.78F
VERNAL         MOSUNNY   83  38  20 SW9       29.93F
WENDOVER       PTSUNNY   90  30  12 S21G32    29.72F
HEBER CITY     MOSUNNY   81  28  15 SW17      29.91F
WEST JORDAN    SUNNY     88  36  15 SE20G26   29.82F

$$

UTZ012>022-026-027-040000-

SOUTHERN/CENTRAL UTAH

CITY           SKY/WX    TMP DP  RH WIND       PRES   REMARKS
BLANDING       SUNNY     83  38  20 SW9G16    30.10F
BRYCE CANYON   MOSUNNY   74  34  23 S15       30.14F
CEDAR CITY     SUNNY     81  28  14 S22G31    29.96F
DELTA          MOSUNNY   85  27  12 SW24G33   29.86F
HANKSVILLE     SUNNY     90  34  13 SW13G23   29.90F
MILFORD        SUNNY     86  32  14 SW31G41   29.89F
MOAB/CYNLANDS  SUNNY     89  33  13 SW21G29   29.88F
PRICE          SUNNY     82  33  17 S16G26    29.96F
ST GEORGE      PTCLDY    97  37  12 SW24G31   29.78F HX  92
KANAB          SUNNY     86  39  19 S15G22    30.00F

$$

REGIONAL REPORTS     COLORADO/ARIZONA

CITY           SKY/WX    TMP DP  RH WIND       PRES   REMARKS
CRAIG, CO      PTSUNNY   70  49  47 E18       30.08S
GRAND JUNCTION PTSUNNY   78  49  35 S17       29.96F
RIFLE          MOSUNNY   73  53  49 VRB5      30.05F
MONTROSE       MOSUNNY   76  50  40 SE7       30.07F
CORTEZ         MOSUNNY   83  38  20 SW12G21   30.04F
PAGE, AZ       SUNNY     92  32  12 S9G18     29.89F
GRAND CANYON   SUNNY     78  36  21 SW14G23   30.11F
KINGMAN        SUNNY     92  30  11 SW22G33   29.87F
FLAGSTAFF      SUNNY     73  45  36 W14       30.16F

$$

REGIONAL REPORTS    NEVADA/IDAHO/WYOMING

CITY           SKY/WX    TMP DP  RH WIND       PRES   REMARKS
LAS VEGAS, NV  MOSUNNY   98  30   9 SW15G25   29.68F HX  92
ELY            MOSUNNY   79  23  12 S23G32    29.92F
ELKO           MOSUNNY   81  30  15 W17G28    29.80F HAZE
POCATELLO, ID  MOSUNNY   79  36  21 W10       29.82F
BURLEY         MOSUNNY   70  43  37 W12       29.83F
EVANSTON, WY   SUNNY     76  26  15 SW23G33   30.01F
ROCK SPRINGS   PTSUNNY   75  31  19 S14G22    30.00F
KEMMERER       SUNNY     77  27  15 SW23G30   30.02S

$$



USA.gov is the U.S. government's official web portal to all federal, state and local government web resources and services.